,,Stat5,,Stat1,,Stat2,,Stat3,,Stat4,,Wind1,,Wind1,
time,status,PA1M_AVG,status,PR1M_SUM,status,RH1M_AVG,status,SR1M_AVG,status,TA1M_AVG,status,W1dAve1m,status,W1sAve1m,
2002-06-04, 00:00:00,VALID,917.791,VALID,0,VALID,96.113,VALID,-0.101885,VALID,20.9041,VALID,46,VALID,0.347852,
2002-06-04, 00:01:00,VALID,917.792,VALID,0,VALID,96.0761,VALID,-0.101885,VALID,20.8946,VALID,21,VALID,0.599554,
2002-06-04, 00:02:00,VALID,917.794,VALID,0,VALID,96.085,VALID,-0.101885,VALID,20.8812,VALID,6,VALID,0.724724,
2002-06-04, 00:03:00,VALID,917.8,VALID,0,VALID,96.0278,VALID,-0.0849042,VALID,20.872,VALID,13,VALID,0.709375,
2002-06-04, 00:04:00,VALID,917.791,VALID,0,VALID,95.9972,VALID,-0.101885,VALID,20.8524,VALID,259,VALID,0.626184,
2002-06-04, 00:05:00,VALID,917.819,VALID,0,VALID,95.9693,VALID,-0.101885,VALID,20.8295,VALID,234,VALID,0.297321,
2002-06-04, 00:06:00,VALID,917.825,VALID,0,VALID,96.0761,VALID,-0.101885,VALID,20.8464,VALID,234,VALID,0.140625,
2002-06-04, 00:07:00,VALID,917.832,VALID,0,VALID,96.1117,VALID,-0.118866,VALID,20.8292,VALID,217,VALID,0.559821,
2002-06-04, 00:08:00,VALID,917.829,VALID,0,VALID,96.1511,VALID,-0.101885,VALID,20.8456,VALID,217,VALID,0.460938,
2002-06-04, 00:09:00,VALID,917.841,VALID,0,VALID,96.2198,VALID,-0.101885,VALID,20.8424,VALID,228,VALID,0.324805,
2002-06-04, 00:10:00,VALID,917.841,VALID,0,VALID,96.1994,VALID,0.0679233,VALID,20.846,VALID,238,VALID,0.226799,
2002-06-04, 00:11:00,VALID,917.831,VALID,0,VALID,96.2083,VALID,0.118866,VALID,20.8487,VALID,271,VALID,0.0575893,
2002-06-04, 00:12:00,VALID,917.799,VALID,0,VALID,96.3126,VALID,0.101885,VALID,20.8673,VALID,18,VALID,0.431332,
2002-06-04, 00:13:00,VALID,917.799,VALID,0,VALID,96.3113,VALID,0.101885,VALID,20.871,VALID,28,VALID,0.533259,
2002-06-04, 00:14:00,VALID,917.766,VALID,0,VALID,96.3711,VALID,0.101885,VALID,20.8845,VALID,20,VALID,0.476792,
2002-06-04, 00:15:00,VALID,917.745,VALID,0,VALID,96.3813,VALID,0.101885,VALID,20.878,VALID,14,VALID,0.518945,
2002-06-04, 00:16:00,VALID,917.73,VALID,0,VALID,96.3355,VALID,0.0849042,VALID,20.8683,VALID,31,VALID,1.04522,
2002-06-04, 00:17:00,VALID,917.733,VALID,0,VALID,96.5135,VALID,0.118866,VALID,20.878,VALID,24,VALID,1.02612,
2002-06-04, 00:18:00,VALID,917.742,VALID,0,VALID,96.6305,VALID,0.101885,VALID,20.8942,VALID,22,VALID,0.616016,
2002-06-04, 00:19:00,VALID,917.752,VALID,0,VALID,96.5835,VALID,0.101885,VALID,20.8942,VALID,18,VALID,0.666964,
2002-06-04, 00:20:00,VALID,917.772,VALID,0,VALID,96.5326,VALID,0.101885,VALID,20.9039,VALID,26,VALID,0.601103,
2002-06-04, 00:21:00,VALID,917.776,VALID,0,VALID,96.4995,VALID,0.101885,VALID,20.9001,VALID,24,VALID,0.473828,
2002-06-04, 00:22:00,VALID,917.769,VALID,0,VALID,96.4321,VALID,0.135847,VALID,20.9006,VALID,23,VALID,0.598248,
2002-06-04, 00:23:00,VALID,917.778,VALID,0,VALID,96.4538,VALID,0.118866,VALID,20.9074,VALID,23,VALID,0.376786,
2002-06-04, 00:24:00,VALID,917.77,VALID,0,VALID,96.4792,VALID,0.101885,VALID,20.9128,VALID,24,VALID,0.34668,
2002-06-04, 00:25:00,VALID,917.759,VALID,0,VALID,96.3571,VALID,0.0509425,VALID,20.9012,VALID,36,VALID,0.475893,
2002-06-04, 00:26:00,VALID,917.74,VALID,0,VALID,96.3266,VALID,0,VALID,20.9049,VALID,35,VALID,0.0615809,
2002-06-04, 00:27:00,VALID,917.728,VALID,0,VALID,96.2134,VALID,0.0169808,VALID,20.9055,VALID,35,VALID,0.112305,
2002-06-04, 00:28:00,VALID,917.693,VALID,0,VALID,96.0341,VALID,0.0169808,VALID,20.8958,VALID,32,VALID,0.340909,
2002-06-04, 00:29:00,VALID,917.666,VALID,0,VALID,96.0532,VALID,0.0169808,VALID,20.8656,VALID,31,VALID,0.0361607,
2002-06-04, 00:30:00,VALID,917.64,VALID,0,VALID,96.0799,VALID,0.0169808,VALID,20.8863,VALID,31,VALID,0,
2002-06-04, 00:31:00,VALID,917.617,VALID,0,VALID,96.0189,VALID,0.0169808,VALID,20.8753,VALID,31,VALID,0.000223214,
2002-06-04, 00:32:00,VALID,917.595,VALID,0,VALID,95.982,VALID,0,VALID,20.8791,VALID,31,VALID,0.000689338,
2002-06-04, 00:33:00,VALID,917.56,VALID,0,VALID,95.9527,VALID,0.0679233,VALID,20.8696,VALID,31,VALID,0.000195313,
2002-06-04, 00:34:00,VALID,917.537,VALID,0,VALID,96.0138,VALID,0.0509425,VALID,20.8462,VALID,31,VALID,0.368371,
2002-06-04, 00:35:00,VALID,917.533,VALID,0,VALID,96.0685,VALID,0.0169808,VALID,20.8538,VALID,28,VALID,0.516518,
2002-06-04, 00:36:00,VALID,917.529,VALID,0,VALID,96.0036,VALID,0.0169808,VALID,20.8497,VALID,25,VALID,0.553906,
2002-06-04, 00:37:00,VALID,917.521,VALID,0,VALID,95.9566,VALID,0,VALID,20.8373,VALID,21,VALID,0.737946,
2002-06-04, 00:38:00,VALID,917.532,VALID,0,VALID,96.0812,VALID,0.0169808,VALID,20.8411,VALID,19,VALID,0.616268,
2002-06-04, 00:39:00,VALID,917.537,VALID,0,VALID,96.0748,VALID,0,VALID,20.8441,VALID,16,VALID,0.531641,
2002-06-04, 00:40:00,VALID,917.547,VALID,0,VALID,96.1219,VALID,0,VALID,20.8408,VALID,15,VALID,0.352746,
2002-06-04, 00:41:00,VALID,917.55,VALID,0,VALID,96.1816,VALID,0.0169808,VALID,20.8306,VALID,15,VALID,0.589509,
2002-06-04, 00:42:00,VALID,917.55,VALID,0,VALID,96.2261,VALID,0,VALID,20.8476,VALID,10,VALID,0.907422,
2002-06-04, 00:43:00,VALID,917.551,VALID,0,VALID,96.1626,VALID,0,VALID,20.8279,VALID,15,VALID,1.19018,
2002-06-04, 00:44:00,VALID,917.549,VALID,0,VALID,96.0735,VALID,0,VALID,20.815,VALID,11,VALID,1.26425,
2002-06-04, 00:45:00,VALID,917.533,VALID,0,VALID,96.1079,VALID,-0.0169808,VALID,20.7787,VALID,4,VALID,0.874609,
2002-06-04, 00:46:00,VALID,917.538,VALID,0,VALID,96.0634,VALID,0.0169808,VALID,20.766,VALID,7,VALID,0.836648,
2002-06-04, 00:47:00,VALID,917.537,VALID,0,VALID,96.0952,VALID,0.0169808,VALID,20.7401,VALID,347,VALID,1.0846,
2002-06-04, 00:48:00,VALID,917.539,VALID,0,VALID,96.174,VALID,0.0169808,VALID,20.7046,VALID,336,VALID,0.964063,
2002-06-04, 00:49:00,VALID,917.536,VALID,0,VALID,96.263,VALID,0.0169808,VALID,20.6653,VALID,357,VALID,0.74933,
2002-06-04, 00:50:00,VALID,917.53,VALID,0,VALID,96.4601,VALID,0,VALID,20.6726,VALID,7,VALID,0.18727,
2002-06-04, 00:51:00,VALID,917.527,VALID,0,VALID,96.5428,VALID,0,VALID,20.6755,VALID,9,VALID,0.721094,
2002-06-04, 00:52:00,VALID,917.511,VALID,0,VALID,96.6547,VALID,0,VALID,20.6949,VALID,6,VALID,0.527225,
2002-06-04, 00:53:00,VALID,917.498,VALID,0,VALID,96.7386,VALID,0,VALID,20.721,VALID,13,VALID,0.130134,
2002-06-04, 00:54:00,VALID,917.484,VALID,0,VALID,96.7488,VALID,0.0169808,VALID,20.7307,VALID,13,VALID,0.288086,
2002-06-04, 00:55:00,VALID,917.466,VALID,0,VALID,96.7424,VALID,0.0509425,VALID,20.7504,VALID,26,VALID,0.615625,
2002-06-04, 00:56:00,VALID,917.468,VALID,0,VALID,96.6979,VALID,0.0169808,VALID,20.7431,VALID,24,VALID,1.03424,
2002-06-04, 00:57:00,VALID,917.465,VALID,0,VALID,96.6852,VALID,0.0169808,VALID,20.7568,VALID,21,VALID,1.0459,
2002-06-04, 00:58:00,VALID,917.461,VALID,0,VALID,96.7424,VALID,0,VALID,20.7601,VALID,24,VALID,0.546875,
2002-06-04, 00:59:00,VALID,917.449,VALID,0,VALID,96.6,VALID,0.0169808,VALID,20.7665,VALID,354,VALID,0.727455,
2002-06-04, 01:00:00,VALID,917.429,VALID,0,VALID,96.422,VALID,0,VALID,20.7277,VALID,9,VALID,1.12422,
2002-06-04, 01:01:00,VALID,917.394,VALID,0,VALID,96.5148,VALID,0.0169808,VALID,20.7113,VALID,10,VALID,1.08929,
2002-06-04, 01:02:00,VALID,917.367,VALID,0,VALID,96.6102,VALID,0,VALID,20.7019,VALID,5,VALID,0.717601,
2002-06-04, 01:03:00,VALID,917.333,VALID,0,VALID,96.6051,VALID,0.0169808,VALID,20.7049,VALID,6,VALID,0.892969,
2002-06-04, 01:04:00,VALID,917.29,VALID,0,VALID,96.6241,VALID,0,VALID,20.6989,VALID,10,VALID,0.790246,
2002-06-04, 01:05:00,VALID,917.251,VALID,0,VALID,96.558,VALID,0,VALID,20.6852,VALID,16,VALID,1.04643,
2002-06-04, 01:06:00,VALID,917.215,VALID,0,VALID,96.5555,VALID,0.0169808,VALID,20.6718,VALID,12,VALID,1.07441,
2002-06-04, 01:07:00,VALID,917.186,VALID,0,VALID,96.5326,VALID,0.0169808,VALID,20.6567,VALID,8,VALID,1.13571,
2002-06-04, 01:08:00,VALID,917.171,VALID,0,VALID,96.5924,VALID,0.0169808,VALID,20.6502,VALID,356,VALID,0.866498,
2002-06-04, 01:09:00,VALID,917.152,VALID,0,VALID,96.5911,VALID,0,VALID,20.6308,VALID,14,VALID,0.549609,
2002-06-04, 01:10:00,VALID,917.129,VALID,0,VALID,96.6407,VALID,0.0509425,VALID,20.6141,VALID,31,VALID,0.624763,
2002-06-04, 01:11:00,VALID,917.102,VALID,0,VALID,96.5885,VALID,0.0339617,VALID,20.5985,VALID,19,VALID,1.04821,
2002-06-04, 01:12:00,VALID,917.086,VALID,0,VALID,96.525,VALID,0.0339617,VALID,20.5697,VALID,16,VALID,1.25391,
2002-06-04, 01:13:00,VALID,917.07,VALID,0,VALID,96.5796,VALID,0.0169808,VALID,20.5503,VALID,19,VALID,1.13571,
2002-06-04, 01:14:00,VALID,917.069,VALID,0,VALID,96.661,VALID,0,VALID,20.5237,VALID,8,VALID,0.612822,
2002-06-04, 01:15:00,VALID,917.069,VALID,0,VALID,96.6725,VALID,0,VALID,20.5115,VALID,351,VALID,0.683203,
2002-06-04, 01:16:00,VALID,917.067,VALID,0,VALID,96.6737,VALID,0,VALID,20.4919,VALID,329,VALID,0.82339,
2002-06-04, 01:17:00,VALID,917.051,VALID,0,VALID,96.6865,VALID,0,VALID,20.4695,VALID,341,VALID,0.751786,
2002-06-04, 01:18:00,VALID,917.034,VALID,0,VALID,96.7551,VALID,0.0169808,VALID,20.4432,VALID,344,VALID,0.495508,
2002-06-04, 01:19:00,VALID,917.014,VALID,0,VALID,96.895,VALID,0,VALID,20.4529,VALID,303,VALID,0.426116,
2002-06-04, 01:20:00,VALID,916.982,VALID,0,VALID,96.9497,VALID,0.0339617,VALID,20.4628,VALID,337,VALID,0.433134,
2002-06-04, 01:21:00,VALID,916.959,VALID,0,VALID,97.0044,VALID,0,VALID,20.4367,VALID,322,VALID,0.271875,
2002-06-04, 01:22:00,VALID,916.94,VALID,0,VALID,97.04,VALID,0,VALID,20.4536,VALID,320,VALID,0.086411,
2002-06-04, 01:23:00,VALID,916.918,VALID,0,VALID,97.1124,VALID,0,VALID,20.4437,VALID,330,VALID,0.116741,
2002-06-04, 01:24:00,VALID,916.899,VALID,0,VALID,97.1455,VALID,0.0169808,VALID,20.4434,VALID,352,VALID,0.701563,
2002-06-04, 01:25:00,VALID,916.889,VALID,0,VALID,97.0272,VALID,-0.0679233,VALID,20.4221,VALID,319,VALID,0.514509,
2002-06-04, 01:26:00,VALID,916.864,VALID,0,VALID,97.0209,VALID,-0.0849042,VALID,20.3997,VALID,332,VALID,0.409237,
2002-06-04, 01:27:00,VALID,916.852,VALID,0,VALID,97.0425,VALID,-0.0679233,VALID,20.403,VALID,17,VALID,0.404492,
2002-06-04, 01:28:00,VALID,916.838,VALID,0,VALID,97.0476,VALID,-0.101885,VALID,20.4003,VALID,14,VALID,0.525331,
2002-06-04, 01:29:00,VALID,916.825,VALID,0,VALID,97.0438,VALID,-0.101885,VALID,20.4035,VALID,10,VALID,0.360938,
2002-06-04, 01:30:00,VALID,916.82,VALID,0,VALID,96.9827,VALID,-0.101885,VALID,20.3938,VALID,5,VALID,0.386328,
2002-06-04, 01:31:00,VALID,916.822,VALID,0,VALID,96.9217,VALID,-0.0849042,VALID,20.3674,VALID,350,VALID,0.38058,
2002-06-04, 01:32:00,VALID,916.815,VALID,0,VALID,96.9471,VALID,-0.0509425,VALID,20.3677,VALID,346,VALID,0.189108,
2002-06-04, 01:33:00,VALID,916.814,VALID,0,VALID,96.9281,VALID,-0.101885,VALID,20.3647,VALID,338,VALID,0.269336,
2002-06-04, 01:34:00,VALID,916.807,VALID,0,VALID,96.9192,VALID,-0.101885,VALID,20.3645,VALID,297,VALID,0.324574,
2002-06-04, 01:35:00,VALID,916.808,VALID,0,VALID,96.8492,VALID,-0.0849042,VALID,20.368,VALID,300,VALID,0.438839,
2002-06-04, 01:36:00,VALID,916.805,VALID,0,VALID,96.8721,VALID,-0.0849042,VALID,20.3811,VALID,305,VALID,0.388867,
2002-06-04, 01:37:00,VALID,916.801,VALID,0,VALID,96.9014,VALID,-0.0849042,VALID,20.3674,VALID,311,VALID,0.390625,
2002-06-04, 01:38:00,VALID,916.819,VALID,0,VALID,96.9675,VALID,-0.0849042,VALID,20.3677,VALID,332,VALID,0.129596,
2002-06-04, 01:39:00,VALID,916.824,VALID,0,VALID,97.0527,VALID,-0.101885,VALID,20.3873,VALID,332,VALID,0.0117188,
2002-06-04, 01:40:00,VALID,916.84,VALID,0,VALID,97.0984,VALID,-0.0169808,VALID,20.3992,VALID,333,VALID,0.0473485,
2002-06-04, 01:41:00,VALID,916.845,VALID,0,VALID,97.143,VALID,0.0339617,VALID,20.3982,VALID,333,VALID,0.015625,
2002-06-04, 01:42:00,VALID,916.852,VALID,0,VALID,97.1773,VALID,0.0339617,VALID,20.4116,VALID,333,VALID,0,
2002-06-04, 01:43:00,VALID,916.833,VALID,0,VALID,97.2104,VALID,0.0169808,VALID,20.4445,VALID,333,VALID,0.0375,
2002-06-04, 01:44:00,VALID,916.825,VALID,0,VALID,97.2027,VALID,0,VALID,20.4407,VALID,337,VALID,0.268842,
2002-06-04, 01:45:00,VALID,916.824,VALID,0,VALID,97.1964,VALID,0,VALID,20.4412,VALID,345,VALID,0.192188,
2002-06-04, 01:46:00,VALID,916.823,VALID,0,VALID,97.2116,VALID,-0.0169808,VALID,20.4377,VALID,345,VALID,0,
2002-06-04, 01:47:00,VALID,916.82,VALID,0,VALID,97.2396,VALID,0.0169808,VALID,20.4275,VALID,345,VALID,0.0178571,
2002-06-04, 01:48:00,VALID,916.8,VALID,0,VALID,97.2625,VALID,0,VALID,20.4502,VALID,353,VALID,0.282813,
2002-06-04, 01:49:00,VALID,916.788,VALID,0,VALID,97.2816,VALID,0.0339617,VALID,20.4467,VALID,4,VALID,0.319196,
2002-06-04, 01:50:00,VALID,916.772,VALID,0,VALID,97.3337,VALID,0.0169808,VALID,20.4666,VALID,14,VALID,0.473805,
2002-06-04, 01:51:00,VALID,916.776,VALID,0,VALID,97.3871,VALID,0,VALID,20.4701,VALID,14,VALID,0.162695,
2002-06-04, 01:52:00,VALID,916.768,VALID,0,VALID,97.4087,VALID,0,VALID,20.4996,VALID,14,VALID,0,
2002-06-04, 01:53:00,VALID,916.764,VALID,0,VALID,97.3502,VALID,0,VALID,20.4999,VALID,14,VALID,0,
2002-06-04, 01:54:00,VALID,916.758,VALID,0,VALID,97.3134,VALID,0.0339617,VALID,20.4792,VALID,14,VALID,0.00859375,
2002-06-04, 01:55:00,VALID,916.741,VALID,0,VALID,97.3146,VALID,0.0679233,VALID,20.4693,VALID,13,VALID,0.45625,
2002-06-04, 01:56:00,VALID,916.725,VALID,0,VALID,97.3095,VALID,0,VALID,20.4633,VALID,13,VALID,0.577895,
2002-06-04, 01:57:00,VALID,916.694,VALID,0,VALID,97.265,VALID,0,VALID,20.4536,VALID,10,VALID,0.655273,
2002-06-04, 01:58:00,VALID,916.687,VALID,0,VALID,97.2282,VALID,0,VALID,20.4278,VALID,9,VALID,0.676847,
2002-06-04, 01:59:00,VALID,916.669,VALID,0,VALID,97.2701,VALID,0,VALID,20.4248,VALID,9,VALID,0.703125,
2002-06-04, 02:00:00,VALID,916.677,VALID,0,VALID,97.2943,VALID,0.0169808,VALID,20.4054,VALID,13,VALID,0.649805,
2002-06-04, 02:01:00,VALID,916.676,VALID,0,VALID,97.3273,VALID,0.0339617,VALID,20.3853,VALID,20,VALID,0.797321,
2002-06-04, 02:02:00,VALID,916.703,VALID,0,VALID,97.3757,VALID,0,VALID,20.3963,VALID,25,VALID,0.821002,
2002-06-04, 02:03:00,VALID,916.713,VALID,0,VALID,97.41,VALID,0,VALID,20.389,VALID,29,VALID,0.911914,
2002-06-04, 02:04:00,VALID,916.709,VALID,0,VALID,97.4443,VALID,0.0169808,VALID,20.3895,VALID,28,VALID,0.834517,
2002-06-04, 02:05:00,VALID,916.72,VALID,0,VALID,97.4517,VALID,0.0169808,VALID,20.3858,VALID,20,VALID,0.520759,
2002-06-04, 02:06:00,VALID,916.72,VALID,0,VALID,97.4507,VALID,0.0169808,VALID,20.3828,VALID,20,VALID,0.479102,
2002-06-04, 02:07:00,VALID,916.706,VALID,0,VALID,97.3833,VALID,0.0339617,VALID,20.3895,VALID,22,VALID,0.720312,
2002-06-04, 02:08:00,VALID,916.721,VALID,0,VALID,97.2968,VALID,0,VALID,20.3602,VALID,20,VALID,0.492188,
2002-06-04, 02:09:00,VALID,916.716,VALID,0,VALID,97.3591,VALID,0,VALID,20.35,VALID,19,VALID,0.571289,
2002-06-04, 02:10:00,VALID,916.722,VALID,0,VALID,97.4189,VALID,0,VALID,20.3634,VALID,20,VALID,0.429214,
2002-06-04, 02:11:00,VALID,916.729,VALID,0,VALID,97.4189,VALID,0.0339617,VALID,20.3734,VALID,20,VALID,0.381696,
2002-06-04, 02:12:00,VALID,916.733,VALID,0,VALID,97.4087,VALID,0.0169808,VALID,20.3667,VALID,20,VALID,0.395312,
2002-06-04, 02:13:00,VALID,916.717,VALID,0,VALID,97.4761,VALID,0,VALID,20.3831,VALID,16,VALID,0.583259,
2002-06-04, 02:14:00,VALID,916.719,VALID,0,VALID,97.5397,VALID,0,VALID,20.396,VALID,25,VALID,0.637638,
2002-06-04, 02:15:00,VALID,916.732,VALID,0,VALID,97.4443,VALID,0,VALID,20.3861,VALID,13,VALID,0.617773,
2002-06-04, 02:16:00,VALID,916.735,VALID,0,VALID,97.3757,VALID,0,VALID,20.3632,VALID,342,VALID,0.412879,
2002-06-04, 02:17:00,VALID,916.758,VALID,0,VALID,97.4329,VALID,0,VALID,20.3478,VALID,342,VALID,0.175,
2002-06-04, 02:18:00,VALID,916.763,VALID,0,VALID,97.5499,VALID,0.0339617,VALID,20.3371,VALID,342,VALID,0.003125,
2002-06-04, 02:19:00,VALID,916.756,VALID,0,VALID,97.6058,VALID,0,VALID,20.3468,VALID,342,VALID,0,
2002-06-04, 02:20:00,VALID,916.752,VALID,0,VALID,97.644,VALID,0.0169808,VALID,20.3543,VALID,348,VALID,0.0951287,
2002-06-04, 02:21:00,VALID,916.74,VALID,0,VALID,97.7114,VALID,0,VALID,20.3672,VALID,15,VALID,0.500195,
2002-06-04, 02:22:00,VALID,916.727,VALID,0,VALID,97.7571,VALID,0.0169808,VALID,20.3801,VALID,24,VALID,0.315578,
2002-06-04, 02:23:00,VALID,916.713,VALID,0,VALID,97.7991,VALID,0.0339617,VALID,20.3866,VALID,21,VALID,0.523214,
2002-06-04, 02:24:00,VALID,916.697,VALID,0,VALID,97.7826,VALID,0,VALID,20.3858,VALID,16,VALID,0.310352,
2002-06-04, 02:25:00,VALID,916.678,VALID,0,VALID,97.8004,VALID,0.0169808,VALID,20.396,VALID,21,VALID,0.667634,
2002-06-04, 02:26:00,VALID,916.657,VALID,0,VALID,97.7851,VALID,0.0169808,VALID,20.389,VALID,21,VALID,0.661075,
2002-06-04, 02:27:00,VALID,916.634,VALID,0,VALID,97.7508,VALID,0,VALID,20.3898,VALID,24,VALID,0.812695,
2002-06-04, 02:28:00,VALID,916.626,VALID,0,VALID,97.7279,VALID,0,VALID,20.3602,VALID,19,VALID,0.881866,
2002-06-04, 02:29:00,VALID,916.6,VALID,0,VALID,97.7292,VALID,0.0169808,VALID,20.3567,VALID,16,VALID,0.981473,
2002-06-04, 02:30:00,VALID,916.583,VALID,0,VALID,97.6694,VALID,0.0509425,VALID,20.3379,VALID,24,VALID,1.2584,
2002-06-04, 02:31:00,VALID,916.576,VALID,0,VALID,97.6821,VALID,0,VALID,20.3212,VALID,28,VALID,1.04888,
2002-06-04, 02:32:00,VALID,916.577,VALID,0,VALID,97.7012,VALID,0.0339617,VALID,20.3048,VALID,23,VALID,0.647518,
2002-06-04, 02:33:00,VALID,916.593,VALID,0,VALID,97.7203,VALID,0.0339617,VALID,20.3118,VALID,23,VALID,0.407227,
2002-06-04, 02:34:00,VALID,916.595,VALID,0,VALID,97.7419,VALID,0,VALID,20.3088,VALID,26,VALID,0.705019,
2002-06-04, 02:35:00,VALID,916.583,VALID,0,VALID,97.7368,VALID,0,VALID,20.2983,VALID,15,VALID,0.442634,
2002-06-04, 02:36:00,VALID,916.582,VALID,0,VALID,97.7317,VALID,0.0169808,VALID,20.3018,VALID,315,VALID,0.420117,
2002-06-04, 02:37:00,VALID,916.569,VALID,0,VALID,97.677,VALID,0,VALID,20.3021,VALID,218,VALID,0.426339,
2002-06-04, 02:38:00,VALID,916.563,VALID,0,VALID,97.663,VALID,0,VALID,20.2953,VALID,191,VALID,0.119715,
2002-06-04, 02:39:00,VALID,916.549,VALID,0,VALID,97.6414,VALID,0.0339617,VALID,20.3155,VALID,190,VALID,0.239258,
2002-06-04, 02:40:00,VALID,916.546,VALID,0,VALID,97.6681,VALID,-0.0849042,VALID,20.3068,VALID,296,VALID,0.613163,
2002-06-04, 02:41:00,VALID,916.547,VALID,0,VALID,97.5575,VALID,-0.0849042,VALID,20.2944,VALID,21,VALID,0.745982,
2002-06-04, 02:42:00,VALID,916.549,VALID,0,VALID,97.5562,VALID,-0.101885,VALID,20.2783,VALID,11,VALID,0.422461,
2002-06-04, 02:43:00,VALID,916.576,VALID,0,VALID,97.5575,VALID,-0.101885,VALID,20.2777,VALID,5,VALID,0.0334821,
2002-06-04, 02:44:00,VALID,916.599,VALID,0,VALID,97.5537,VALID,-0.0679233,VALID,20.278,VALID,5,VALID,0.0903033,
2002-06-04, 02:45:00,VALID,916.619,VALID,0,VALID,97.5461,VALID,-0.0849042,VALID,20.271,VALID,329,VALID,0.187695,
2002-06-04, 02:46:00,VALID,916.636,VALID,0,VALID,97.5664,VALID,-0.101885,VALID,20.2914,VALID,16,VALID,0.596117,
2002-06-04, 02:47:00,VALID,916.653,VALID,0,VALID,97.5003,VALID,-0.101885,VALID,20.2648,VALID,13,VALID,0.750223,
2002-06-04, 02:48:00,VALID,916.648,VALID,0,VALID,97.4837,VALID,-0.101885,VALID,20.2559,VALID,23,VALID,1.01426,
2002-06-04, 02:49:00,VALID,916.636,VALID,0,VALID,97.4469,VALID,-0.0849042,VALID,20.243,VALID,19,VALID,0.962277,
2002-06-04, 02:50:00,VALID,916.617,VALID,0,VALID,97.424,VALID,-0.101885,VALID,20.2298,VALID,28,VALID,0.867877,
2002-06-04, 02:51:00,VALID,916.593,VALID,0,VALID,97.3693,VALID,-0.101885,VALID,20.2045,VALID,4,VALID,0.914844,
2002-06-04, 02:52:00,VALID,916.55,VALID,0,VALID,97.2816,VALID,-0.0849042,VALID,20.1751,VALID,13,VALID,1.15199,
2002-06-04, 02:53:00,VALID,916.533,VALID,0,VALID,97.307,VALID,-0.118866,VALID,20.1619,VALID,20,VALID,1.13147,
2002-06-04, 02:54:00,VALID,916.518,VALID,0,VALID,97.2739,VALID,-0.118866,VALID,20.1592,VALID,16,VALID,0.930469,
2002-06-04, 02:55:00,VALID,916.513,VALID,0,VALID,97.2536,VALID,-0.0339617,VALID,20.1348,VALID,18,VALID,0.997991,
2002-06-04, 02:56:00,VALID,916.517,VALID,0,VALID,97.1798,VALID,0,VALID,20.1187,VALID,3,VALID,0.836627,
2002-06-04, 02:57:00,VALID,916.522,VALID,0,VALID,97.1099,VALID,0,VALID,20.1025,VALID,17,VALID,0.797852,
2002-06-04, 02:58:00,VALID,916.534,VALID,0,VALID,97.1328,VALID,0,VALID,20.0759,VALID,16,VALID,0.845644,
2002-06-04, 02:59:00,VALID,916.509,VALID,0,VALID,97.1328,VALID,0,VALID,20.0603,VALID,18,VALID,0.68192,
2002-06-04, 03:00:00,VALID,916.502,VALID,0,VALID,97.1023,VALID,-0.0169808,VALID,20.0541,VALID,13,VALID,0.874414,
2002-06-04, 03:01:00,VALID,916.465,VALID,0,VALID,97.0832,VALID,0,VALID,20.0183,VALID,19,VALID,0.864286,
2002-06-04, 03:02:00,VALID,916.461,VALID,0,VALID,97.2091,VALID,0,VALID,20.0121,VALID,10,VALID,0.941866,
2002-06-04, 03:03:00,VALID,916.459,VALID,0,VALID,97.3591,VALID,0.0169808,VALID,20.0153,VALID,3,VALID,0.805273,
2002-06-04, 03:04:00,VALID,916.464,VALID,0,VALID,97.4392,VALID,0,VALID,20.0215,VALID,10,VALID,0.732008,
2002-06-04, 03:05:00,VALID,916.482,VALID,0,VALID,97.3973,VALID,0,VALID,19.9962,VALID,12,VALID,0.689509,
2002-06-04, 03:06:00,VALID,916.512,VALID,0,VALID,97.4634,VALID,0,VALID,19.9703,VALID,7,VALID,0.910352,
2002-06-04, 03:07:00,VALID,916.525,VALID,0,VALID,97.6274,VALID,0,VALID,19.9698,VALID,359,VALID,1.0779,
2002-06-04, 03:08:00,VALID,916.551,VALID,0,VALID,97.7648,VALID,0,VALID,19.9835,VALID,13,VALID,1.18015,
2002-06-04, 03:09:00,VALID,916.545,VALID,0,VALID,97.8703,VALID,0,VALID,19.9663,VALID,18,VALID,1.0082,
2002-06-04, 03:10:00,VALID,916.525,VALID,0,VALID,97.8767,VALID,0,VALID,19.9671,VALID,10,VALID,1.14063,
2002-06-04, 03:11:00,VALID,916.521,VALID,0,VALID,97.8703,VALID,0,VALID,19.9378,VALID,5,VALID,0.794866,
2002-06-04, 03:12:00,VALID,916.508,VALID,0,VALID,97.8894,VALID,0,VALID,19.9216,VALID,360,VALID,0.600391,
2002-06-04, 03:13:00,VALID,916.482,VALID,0,VALID,97.9542,VALID,0,VALID,19.9089,VALID,355,VALID,0.53125,
2002-06-04, 03:14:00,VALID,916.471,VALID,0,VALID,98.0102,VALID,0,VALID,19.9152,VALID,345,VALID,0.249311,
2002-06-04, 03:15:00,VALID,916.446,VALID,0,VALID,98.0649,VALID,0,VALID,19.9186,VALID,351,VALID,0.340234,
2002-06-04, 03:16:00,VALID,916.427,VALID,0,VALID,98.0738,VALID,0.0169808,VALID,19.9186,VALID,12,VALID,0.641572,
2002-06-04, 03:17:00,VALID,916.393,VALID,0,VALID,98.028,VALID,0.0169808,VALID,19.8995,VALID,16,VALID,0.698214,
2002-06-04, 03:18:00,VALID,916.381,VALID,0,VALID,98.0051,VALID,0,VALID,19.8734,VALID,13,VALID,0.753125,
2002-06-04, 03:19:00,VALID,916.363,VALID,0,VALID,97.9873,VALID,0,VALID,19.8702,VALID,16,VALID,0.497991,
2002-06-04, 03:20:00,VALID,916.327,VALID,0,VALID,97.9797,VALID,0,VALID,19.8605,VALID,17,VALID,0.576976,
2002-06-04, 03:21:00,VALID,916.303,VALID,0,VALID,97.9403,VALID,0,VALID,19.854,VALID,17,VALID,0.599023,
2002-06-04, 03:22:00,VALID,916.286,VALID,0,VALID,97.9314,VALID,-0.0169808,VALID,19.854,VALID,16,VALID,0.630682,
2002-06-04, 03:23:00,VALID,916.265,VALID,0,VALID,97.836,VALID,0.0169808,VALID,19.8282,VALID,16,VALID,0.920536,
2002-06-04, 03:24:00,VALID,916.255,VALID,0,VALID,97.8131,VALID,0.0169808,VALID,19.8021,VALID,15,VALID,1.12266,
2002-06-04, 03:25:00,VALID,916.268,VALID,0,VALID,97.822,VALID,0,VALID,19.7663,VALID,12,VALID,0.925223,
2002-06-04, 03:26:00,VALID,916.262,VALID,0,VALID,97.9352,VALID,0,VALID,19.7733,VALID,7,VALID,0.848346,
2002-06-04, 03:27:00,VALID,916.295,VALID,0,VALID,98.0331,VALID,-0.0169808,VALID,19.7862,VALID,3,VALID,1.0168,
2002-06-04, 03:28:00,VALID,916.306,VALID,0,VALID,98.0598,VALID,0,VALID,19.7698,VALID,3,VALID,0.952178,
2002-06-04, 03:29:00,VALID,916.327,VALID,0,VALID,98.0458,VALID,0,VALID,19.7832,VALID,8,VALID,0.799777,
2002-06-04, 03:30:00,VALID,916.335,VALID,0,VALID,98.014,VALID,-0.0169808,VALID,19.78,VALID,341,VALID,0.869141,
2002-06-04, 03:31:00,VALID,916.316,VALID,0,VALID,98.07,VALID,0,VALID,19.7961,VALID,323,VALID,0.943527,
2002-06-04, 03:32:00,VALID,916.293,VALID,0,VALID,98.0674,VALID,0,VALID,19.812,VALID,347,VALID,0.519991,
2002-06-04, 03:33:00,VALID,916.282,VALID,0,VALID,97.9848,VALID,0.0339617,VALID,19.812,VALID,331,VALID,0.475586,
2002-06-04, 03:34:00,VALID,916.252,VALID,0,VALID,98.014,VALID,0.0169808,VALID,19.8155,VALID,323,VALID,0.310369,
2002-06-04, 03:35:00,VALID,916.233,VALID,0,VALID,98.0038,VALID,0.0169808,VALID,19.8257,VALID,334,VALID,0.158705,
2002-06-04, 03:36:00,VALID,916.221,VALID,0,VALID,97.9593,VALID,0,VALID,19.8287,VALID,337,VALID,0.116211,